Simultaneous Nadir Overpasses (SNOs) Predictions

Prediction of SNOs between AQUA and METOP-A Satellite Orbit:

Table of predicted SNOs for the next 14.0 days since TLE Epoch: 4/20/2017
Index Date (AQUA) Time (AQUA) Lat,Lon (AQUA) SZA (AQUA ) Date (METOP-A) Time (METOP-A) Lat,Lon (METOP-A) SZA (METOP-A ) Distance(km) Time Diff (sec)
1 04/22/2017 06:33:20 73.87, 75.86 61.58 04/22/2017 06:32:26 73.88, 75.90 61.59 1.70 54
2 04/22/2017 07:22:47 -73.93,-116.64 118.37 04/22/2017 07:23:07 -73.93,-116.64 118.37 0.58 20
3 04/22/2017 08:12:27 74.59, 49.46 62.32 04/22/2017 08:13:33 74.59, 52.37 62.24 86.01 66
4 04/25/2017 02:07:34 73.85, 142.33 60.62 04/25/2017 02:06:48 73.86, 142.27 60.65 2.59 46
5 04/25/2017 02:57:01 -73.91, -50.16 119.33 04/25/2017 02:57:29 -73.92, -50.27 119.31 3.51 28
6 04/27/2017 21:41:48 73.89,-151.33 59.77 04/27/2017 21:41:08 73.90,-151.24 59.78 2.65 40
7 04/27/2017 22:31:15 -73.96, 16.18 120.18 04/27/2017 22:31:49 -73.96, 16.22 120.19 1.43 34
8 04/30/2017 17:16:02 73.90, -84.89 58.90 04/30/2017 17:15:30 73.88, -84.88 58.89 1.90 32
9 04/30/2017 18:05:29 -73.96, 82.61 121.05 04/30/2017 18:06:11 -73.94, 82.59 121.07 2.11 42
10 05/03/2017 12:50:16 73.91, -18.49 58.07 05/03/2017 12:49:51 73.91, -18.40 58.07 2.65 25
11 05/03/2017 13:39:43 -73.97, 149.02 121.88 05/03/2017 13:40:32 -73.97, 149.07 121.89 1.61 49




NCC Satellite Simultaneous Nadir Overpasses (SNOs) Prediction Service
